This is the latest recevied weather packets stored in our database for station/object KG4AGD. If no packets are shown the sender has not sent any weather packets the latest 1 day(s).
| Time | Temp. | Humidity | Pressure | Rain* | Wind** | Luminosity | Snow |
|---|---|---|---|---|---|---|---|
| 1778022688 | 24.44° C | 54% | 1015.5 hPa | 0 mm | 2.68 m/s, 177° | - | - |
| 1778022386 | 25° C | 54% | 1015.5 hPa | 0 mm | 4.02 m/s, 207° | - | - |
| 1778022084 | 25° C | 54% | 1015.5 hPa | 0 mm | 3.13 m/s, 162° | - | - |
| 1778021771 | 25° C | 53% | 1015.5 hPa | 0 mm | 2.68 m/s, 166° | - | - |
| 1778021469 | 25° C | 53% | 1015.5 hPa | 0 mm | 4.47 m/s, 173° | - | - |
| 1778021167 | 25.56° C | 52% | 1015.5 hPa | 0 mm | 3.58 m/s, 119° | - | - |
| 1778020865 | 25.56° C | 52% | 1015.9 hPa | 0 mm | 3.58 m/s, 134° | - | - |
| 1778020562 | 25.56° C | 52% | 1015.5 hPa | 0 mm | 3.58 m/s, 175° | - | - |
| 1778020260 | 25.56° C | 52% | 1015.9 hPa | 0 mm | 3.13 m/s, 213° | - | - |
| 1778019957 | 25.56° C | 51% | 1015.9 hPa | 0 mm | 4.02 m/s, 166° | - | - |
| 1778019655 | 25.56° C | 52% | 1015.9 hPa | 0 mm | 3.13 m/s, 164° | - | - |
| 1778019353 | 26.11° C | 50% | 1015.9 hPa | 0 mm | 4.02 m/s, 162° | - | - |
| 1778019050 | 26.67° C | 50% | 1015.9 hPa | 0 mm | 3.58 m/s, 169° | - | - |
| 1778018748 | 26.67° C | 51% | 1015.9 hPa | 0 mm | 3.13 m/s, 226° | - | - |
| 1778018446 | 26.67° C | 52% | 1015.9 hPa | 0 mm | 2.24 m/s, 177° | - | - |
| 1778018143 | 26.67° C | 51% | 1015.9 hPa | 0 mm | 4.92 m/s, 193° | - | - |
| 1778017841 | 26.67° C | 50% | 1015.9 hPa | 0 mm | 3.58 m/s, 228° | - | - |
| 1778017539 | 26.67° C | 50% | 1015.9 hPa | 0 mm | 3.13 m/s, 184° | - | - |
| 1778017237 | 26.67° C | 50% | 1015.9 hPa | 0 mm | 4.02 m/s, 171° | - | - |
| 1778016934 | 27.22° C | 49% | 1015.9 hPa | 0 mm | 4.47 m/s, 210° | - | - |
| 1778016632 | 26.67° C | 49% | 1015.9 hPa | 0 mm | 3.58 m/s, 171° | - | - |
| 1778016330 | 27.22° C | 49% | 1015.9 hPa | 0 mm | 3.58 m/s, 165° | - | - |
| 1778016027 | 26.67° C | 49% | 1015.9 hPa | 0 mm | 5.36 m/s, 140° | - | - |
| 1778015725 | 27.22° C | 49% | 1015.9 hPa | 0 mm | 3.58 m/s, 177° | - | - |
| 1778015422 | 27.22° C | 48% | 1015.9 hPa | 0 mm | 4.47 m/s, 151° | - | - |
* Rain since midnight (hover to see other rain measurements)
** Current wind speed in m/s (hover to see current wind gust speed)